Location: Borz?cin
(51.1714°N, 19.6030°E)
Time: 08:31:11
(UTC+00:00)

In-Cosmos 22 - Pass Details

Date: 19 May 2025
Orbit: 783 x 874 km, 81.2° (Epoch: 16 June)

Event Time Altitude Azimuth Distance (km) Brightness Sun altitude
Exits shadow 23:31:02 30° 204° (SSW) 1,511 4.9 -17.9°
Maximum altitude 23:33:59 74° 284° (WNW) 910 4.3 -17.8°
Drops below altitude 10° 23:39:47 10° 10° (N) 2,539 8.0 -17.6°
Sets 23:42:15 0° 12° (NNE) 3,481 9.2 -17.5°
